Tracking 19706 objects as of 16-Jun-2019
HD Live streaming from Space Station
objects crossing your sky now

SL-14 DEB

Track SL-14 DEB now!
10-day predictions


NORAD ID: 35524
Int'l Code: 1987-068CT
Perigee: 871.6 km
Apogee: 908.8 km
Inclination: 82.5 °
Period: 102.6 minutes
Semi major axis: 7261 km
RCS: 0.005 m2 (small)
Launch date: August 18, 1987
Source: Commonwealth of Independent States (former USSR) (CIS)
Launch site: PLESETSK MISSILE AND SPACE COMPLEX (PKMTR)

Note: This is SATELLITE DEBRIS
aabbcc
Your satellite tracking list
Your tracking list is empty




NASA's NSSDC Master Catalog

Two Line Element Set (TLE):
1 35524U 87068CT  19082.81745683 +.00000677 +00000-0 +42439-3 0  9995
2 35524 082.5148 110.6814 0025596 029.6913 330.5704 14.03103236809762
Source of the keplerian elements: AFSPC